TimeCST,TemperatureF,Dew PointF,Humidity,Sea Level PressureIn,VisibilityMPH,Wind Direction,Wind SpeedMPH,Gust SpeedMPH,PrecipitationIn,Events,Conditions,WindDirDegrees,DateUTC
12:15 AM,44.6,32.0,61,29.94,10.0,SSE,13.8,19.6,N/A,,Mostly Cloudy,150,2013-11-04 06:15:00
12:35 AM,44.6,32.0,61,29.93,10.0,SSE,16.1,-,N/A,,Overcast,150,2013-11-04 06:35:00
12:55 AM,44.6,32.0,61,29.92,10.0,SSE,11.5,20.7,N/A,,Overcast,150,2013-11-04 06:55:00
1:15 AM,44.6,32.0,61,29.92,10.0,SSE,13.8,24.2,N/A,,Scattered Clouds,160,2013-11-04 07:15:00
1:35 AM,44.8,32.0,61,29.91,10.0,SSE,13.8,20.7,N/A,,Mostly Cloudy,150,2013-11-04 07:35:00
1:55 AM,45.0,32.0,60,29.91,10.0,SE,13.8,19.6,N/A,,Overcast,140,2013-11-04 07:55:00
2:15 AM,45.1,32.0,60,29.90,10.0,SSE,15.0,19.6,N/A,,Overcast,150,2013-11-04 08:15:00
2:35 AM,45.3,32.0,60,29.90,10.0,SSE,15.0,21.9,N/A,,Overcast,160,2013-11-04 08:35:00
2:55 AM,45.5,32.0,59,29.90,10.0,SSE,13.8,19.6,N/A,,Overcast,160,2013-11-04 08:55:00
3:15 AM,45.7,32.2,59,29.89,10.0,SSE,17.3,-,N/A,,Overcast,150,2013-11-04 09:15:00
3:35 AM,45.7,32.0,59,29.88,10.0,SSE,11.5,20.7,N/A,,Overcast,160,2013-11-04 09:35:00
3:55 AM,46.4,32.0,57,29.88,10.0,SSE,12.7,23.0,N/A,,Overcast,150,2013-11-04 09:55:00
4:15 AM,46.0,32.0,58,29.88,10.0,SSE,12.7,25.3,N/A,,Overcast,150,2013-11-04 10:15:00
4:35 AM,46.0,32.2,58,29.88,10.0,SSE,16.1,25.3,N/A,,Overcast,160,2013-11-04 10:35:00
4:55 AM,46.2,32.0,58,29.88,10.0,SSE,13.8,20.7,N/A,,Overcast,160,2013-11-04 10:55:00
5:15 AM,46.0,32.5,59,29.89,10.0,South,13.8,21.9,N/A,,Overcast,170,2013-11-04 11:15:00
5:35 AM,45.9,33.1,61,29.88,10.0,SSE,13.8,25.3,N/A,,Overcast,160,2013-11-04 11:35:00
5:55 AM,45.7,33.4,62,29.88,10.0,SSE,12.7,20.7,N/A,,Overcast,150,2013-11-04 11:55:00
6:15 AM,45.5,33.8,64,29.87,10.0,SSE,12.7,19.6,N/A,,Overcast,150,2013-11-04 12:15:00
6:35 AM,45.5,33.8,64,29.87,10.0,SSE,13.8,20.7,N/A,,Overcast,160,2013-11-04 12:35:00
6:55 AM,45.1,34.0,65,29.88,10.0,South,13.8,18.4,N/A,,Overcast,170,2013-11-04 12:55:00
7:15 AM,45.0,34.0,65,29.87,10.0,SSE,12.7,18.4,N/A,,Overcast,160,2013-11-04 13:15:00
7:35 AM,45.0,34.2,66,29.88,10.0,South,16.1,19.6,N/A,,Overcast,170,2013-11-04 13:35:00
7:55 AM,45.0,34.5,67,29.88,10.0,South,12.7,19.6,N/A,,Overcast,170,2013-11-04 13:55:00
8:15 AM,45.1,34.7,67,29.88,10.0,SSE,16.1,21.9,N/A,,Overcast,160,2013-11-04 14:15:00
8:35 AM,45.5,34.9,66,29.88,10.0,South,13.8,20.7,N/A,,Overcast,170,2013-11-04 14:35:00
8:55 AM,45.5,35.2,67,29.88,10.0,South,16.1,25.3,N/A,,Overcast,170,2013-11-04 14:55:00
9:15 AM,45.5,35.4,68,29.88,10.0,SSE,11.5,24.2,N/A,,Overcast,160,2013-11-04 15:15:00
9:35 AM,45.5,35.6,68,29.88,10.0,SSE,12.7,-,N/A,,Overcast,160,2013-11-04 15:35:00
9:55 AM,45.3,36.3,71,29.88,10.0,SSE,16.1,24.2,N/A,,Drizzle,160,2013-11-04 15:55:00
10:15 AM,44.8,37.0,74,29.87,10.0,South,16.1,23.0,N/A,Rain,Light Rain,170,2013-11-04 16:15:00
10:35 AM,44.6,37.6,76,29.86,10.0,South,16.1,23.0,N/A,,Overcast,180,2013-11-04 16:35:00
10:55 AM,44.6,37.4,76,29.85,10.0,South,13.8,26.5,N/A,,Overcast,180,2013-11-04 16:55:00
11:15 AM,45.0,37.4,75,29.85,10.0,South,12.7,19.6,N/A,,Overcast,170,2013-11-04 17:15:00
11:35 AM,44.6,37.6,76,29.84,10.0,South,16.1,26.5,N/A,,Overcast,170,2013-11-04 17:35:00
11:55 AM,43.9,39.2,84,29.85,5.0,South,15.0,25.3,N/A,Rain,Rain,170,2013-11-04 17:55:00
12:15 PM,43.3,40.8,91,29.85,4.0,South,13.8,19.6,0.03,Rain,Rain,170,2013-11-04 18:15:00
12:35 PM,43.2,41.0,92,29.85,5.0,South,13.8,26.5,0.08,Rain,Light Rain,180,2013-11-04 18:35:00
12:55 PM,43.7,41.2,91,29.85,10.0,South,9.2,-,0.09,Rain,Rain,180,2013-11-04 18:55:00
1:15 PM,43.7,41.9,93,29.84,10.0,South,10.4,-,N/A,,Light Drizzle,170,2013-11-04 19:15:00
1:35 PM,43.7,41.9,93,29.83,10.0,South,9.2,16.1,N/A,,Drizzle,180,2013-11-04 19:35:00
2:15 PM,44.2,42.4,93,29.83,10.0,South,10.4,-,N/A,,Overcast,180,2013-11-04 20:15:00
2:35 PM,44.6,42.8,93,29.84,10.0,South,13.8,19.6,N/A,,Overcast,190,2013-11-04 20:35:00
2:55 PM,45.0,43.0,93,29.85,7.0,SW,9.2,-,N/A,,Drizzle,220,2013-11-04 20:55:00
3:15 PM,45.0,43.2,93,29.87,10.0,WSW,10.4,-,N/A,,Drizzle,240,2013-11-04 21:15:00
3:35 PM,45.0,43.0,93,29.88,7.0,WSW,12.7,-,N/A,,Light Drizzle,250,2013-11-04 21:35:00
3:55 PM,44.2,42.4,93,29.89,5.0,West,8.1,-,N/A,,Overcast,270,2013-11-04 21:55:00
4:15 PM,44.1,41.9,92,29.90,10.0,West,6.9,-,N/A,,Overcast,260,2013-11-04 22:15:00
4:35 PM,44.1,41.9,92,29.91,10.0,West,6.9,-,N/A,,Overcast,260,2013-11-04 22:35:00
4:55 PM,43.9,41.4,91,29.93,10.0,WSW,5.8,-,N/A,,Overcast,250,2013-11-04 22:55:00
5:15 PM,43.5,41.2,91,29.94,10.0,WSW,8.1,-,N/A,,Overcast,240,2013-11-04 23:15:00
5:35 PM,43.7,39.9,87,29.96,10.0,West,12.7,19.6,N/A,,Overcast,270,2013-11-04 23:35:00
5:55 PM,43.2,37.8,81,29.97,10.0,West,8.1,-,N/A,,Overcast,270,2013-11-04 23:55:00
6:15 PM,42.8,37.6,82,29.98,10.0,West,6.9,-,N/A,,Overcast,260,2013-11-05 00:15:00
6:35 PM,42.8,37.4,81,29.99,10.0,West,11.5,-,N/A,,Overcast,270,2013-11-05 00:35:00
6:55 PM,41.9,35.4,78,30.01,10.0,WNW,10.4,-,N/A,,Overcast,290,2013-11-05 00:55:00
7:15 PM,40.1,32.9,75,30.02,10.0,West,6.9,-,N/A,,Scattered Clouds,270,2013-11-05 01:15:00
7:35 PM,38.5,32.5,79,30.03,10.0,West,6.9,-,N/A,,Clear,270,2013-11-05 01:35:00
7:55 PM,37.8,32.5,81,30.03,10.0,West,5.8,-,N/A,,Clear,270,2013-11-05 01:55:00
8:15 PM,37.0,32.4,83,30.03,10.0,SW,3.5,-,N/A,,Clear,230,2013-11-05 02:15:00
8:35 PM,34.9,32.7,92,30.05,10.0,SW,3.5,-,N/A,,Clear,230,2013-11-05 02:35:00
8:55 PM,34.2,33.1,96,30.05,10.0,SW,3.5,-,N/A,,Clear,220,2013-11-05 02:55:00
9:15 PM,33.8,32.2,94,30.07,10.0,WSW,4.6,-,N/A,,Clear,240,2013-11-05 03:15:00
9:35 PM,32.9,32.0,96,30.08,10.0,SW,4.6,-,N/A,,Clear,220,2013-11-05 03:35:00
9:55 PM,33.3,32.0,95,30.09,10.0,SW,4.6,-,N/A,,Clear,220,2013-11-05 03:55:00
10:15 PM,34.2,32.5,94,30.09,10.0,SW,4.6,-,N/A,,Clear,220,2013-11-05 04:15:00
10:35 PM,33.8,32.4,94,30.09,10.0,SW,3.5,-,N/A,,Clear,230,2013-11-05 04:35:00
10:55 PM,33.8,32.0,93,30.10,10.0,SW,4.6,-,N/A,,Clear,230,2013-11-05 04:55:00
11:15 PM,33.6,32.0,94,30.10,10.0,SW,5.8,-,N/A,,Clear,230,2013-11-05 05:15:00
11:35 PM,33.8,32.2,94,30.11,10.0,SW,5.8,-,N/A,,Clear,230,2013-11-05 05:35:00
11:55 PM,33.4,32.0,94,30.12,10.0,SSW,4.6,-,N/A,,Clear,210,2013-11-05 05:55:00